Lapse_Rate
6.3 6.6 6.8 6.9 6.9 6.7 6.8 6.6 6.5 6.6 6.4 6.5 6.5 6.6 6.6 6.9 7.1 7.3 7.5 7.7 7.8 8.0 8.0 8.1 8.2 8.3 8.1 8.1 8.0 8.1 8.2 8.4 8.5 8.3 8.2 8.0 8.0 8.1 8.4 8.6 8.7 8.6 8.9 9.1 9.0 9.2 9.3
6.2 6.5 6.5 6.6 6.6 6.7 6.7 6.7 6.6 6.6 6.4 6.5 6.5 6.7 6.7 7.1 7.2 7.3 7.6 7.7 7.9 7.9 7.9 7.8 8.1 8.0 8.0 8.0 8.1 8.2 8.2 8.7 8.4 8.6 8.6 8.7 8.7 8.9 8.6 8.6 8.8 9.0 9.0 9.3 9.3 9.3 8.9
6.2 6.3 6.5 6.5 6.5 6.6 6.7 6.6 6.6 6.6 6.5 6.6 6.6 6.6 6.7 7.1 7.1 7.4 7.6 7.6 7.9 7.8 7.8 7.8 7.9 8.0 8.0 7.9 8.2 8.3 8.7 8.7 8.6 8.7 8.8 8.7 8.8 8.9 8.9 9.2 9.2 9.4 9.2 8.9 9.0 9.0 8.9
6.2 6.2 6.1 6.4 6.5 6.6 6.7 6.5 6.5 6.6 6.5 6.6 6.7 6.5 6.8 7.1 7.1 7.4 7.6 7.6 7.8 7.9 7.8 7.8 8.0 8.0 8.1 8.1 8.3 8.6 8.7 9.1 8.8 8.9 8.9 9.2 9.2 9.1 9.1 9.3 9.3 9.2 9.2 9.1 8.5 8.6 8.9
6.2 6.0 6.1 6.2 6.3 6.5 6.6 6.3 6.4 6.4 6.5 6.7 6.7 6.4 6.9 7.0 7.1 7.4 7.5 7.6 7.7 7.7 7.8 8.0 8.0 8.1 8.2 8.2 8.5 8.6 8.8 8.8 9.0 9.1 9.1 9.2 9.3 9.3 9.4 9.4 9.2 9.2 9.1 8.7 8.7 8.8 8.8
5.9 5.9 5.9 5.9 6.0 6.4 6.3 6.3 6.4 6.4 6.6 6.6 6.6 6.4 6.9 6.9 7.0 7.3 7.5 7.5 7.6 7.7 7.8 8.1 8.1 8.0 8.2 8.4 8.6 8.7 8.7 9.0 9.2 9.1 9.2 9.2 9.3 9.4 9.4 9.1 9.3 9.2 9.1 8.9 8.9 8.6 8.5
5.6 5.8 5.9 5.7 5.8 6.2 6.2 6.3 6.4 6.4 6.6 6.6 6.4 6.6 6.8 6.8 6.9 7.3 7.4 7.6 7.5 7.5 8.0 8.2 8.2 8.2 8.3 8.3 8.6 8.7 8.6 9.0 9.1 9.1 9.2 9.3 9.2 9.5 9.2 9.4 9.5 9.3 9.0 9.2 9.0 8.9 8.8
5.2 5.4 5.6 5.7 5.7 5.8 6.0 6.2 6.3 6.5 6.5 6.5 6.3 6.5 6.8 6.6 7.0 7.2 7.2 7.2 7.5 7.8 8.0 8.1 8.3 8.4 8.4 8.4 8.6 8.7 8.7 9.0 9.1 9.1 9.4 9.4 9.4 9.4 9.4 9.4 9.3 9.2 9.4 9.5 9.2 9.0 8.8
5.5 5.6 5.6 5.5 5.6 5.8 5.8 6.0 6.2 6.5 6.4 6.3 6.4 6.5 6.7 6.5 6.9 7.0 7.1 7.3 7.5 7.9 8.1 8.3 8.5 8.4 8.5 8.4 8.5 8.8 8.9 9.1 9.1 9.1 9.4 9.5 9.3 9.2 9.1 9.2 9.4 9.5 9.5 9.0 8.6 8.5 8.4
5.5 5.3 5.6 5.3 5.5 5.9 5.8 5.9 6.1 6.4 6.4 6.3 6.4 6.5 6.5 6.4 6.8 7.0 7.1 7.2 7.5 8.0 8.3 8.4 8.4 8.4 8.5 8.5 8.4 8.6 8.8 8.9 8.9 9.1 9.2 9.2 9.0 9.1 9.0 9.0 9.3 9.3 9.2 9.1 8.8 8.5 8.4
5.9 5.1 5.1 5.2 5.3 5.8 5.9 5.9 6.1 6.4 6.3 6.2 6.4 6.6 6.1 6.5 6.7 7.2 7.3 7.6 7.9 8.3 7.5 8.4 8.4 8.5 8.4 8.4 8.3 8.5 8.6 8.8 9.0 9.1 9.2 9.0 9.0 9.0 9.1 9.0 9.1 9.0 8.7 8.8 8.6 8.6 8.6
6.2 5.0 4.3 4.9 5.2 5.7 5.7 5.9 6.1 6.3 6.3 6.2 6.4 6.4 6.2 6.6 6.9 7.2 7.4 7.8 8.1 8.2 8.0 8.3 8.3 8.3 8.3 8.4 8.3 8.4 8.6 8.7 8.9 9.1 9.1 9.1 9.0 8.8 8.9 8.8 8.8 8.7 8.4 8.3 8.2 8.1 7.7
6.0 5.2 4.3 4.6 5.2 5.7 5.8 5.9 6.1 6.2 6.1 6.1 6.4 6.2 6.4 6.7 6.9 7.0 7.6 7.8 7.9 8.0 8.1 8.2 8.2 8.2 8.2 8.3 8.3 8.4 8.4 8.5 8.7 8.7 8.7 8.8 8.6 8.5 8.5 8.5 8.2 8.3 8.1 7.7 7.7 7.4 7.5
5.7 4.8 4.5 4.8 5.2 5.6 6.0 5.9 6.0 6.1 5.9 6.1 6.3 6.2 6.6 6.7 6.9 7.1 7.5 7.7 7.8 8.1 8.2 8.0 8.1 8.1 8.1 8.2 8.3 8.4 8.5 8.6 8.6 8.7 8.6 8.4 8.3 8.4 8.3 8.3 8.3 8.1 8.0 8.2 7.3 7.1 7.6
5.0 5.0 4.8 5.3 5.4 5.7 5.9 6.1 5.9 6.0 5.8 6.2 6.2 6.4 6.6 6.6 6.8 7.0 7.3 7.5 7.9 8.0 8.1 8.0 8.0 7.9 7.9 8.0 8.2 8.1 8.2 8.3 8.4 8.4 8.4 8.1 7.9 7.9 7.9 7.9 7.9 7.9 7.8 7.9 7.9 7.0 6.7
3.8 5.2 5.3 5.6 5.8 6.0 6.0 5.9 5.8 5.7 5.9 6.2 6.3 6.6 6.6 6.5 6.8 6.9 7.2 7.6 7.7 7.8 8.0 8.0 8.0 7.9 7.9 7.9 8.0 8.0 8.0 8.1 8.1 8.2 8.2 8.1 7.9 7.7 7.7 7.7 7.7 7.8 7.8 7.6 7.7 6.7 6.6
3.5 5.3 5.7 6.1 6.2 6.3 6.2 5.9 5.7 5.7 6.1 6.1 6.4 6.5 6.6 6.6 6.8 6.9 7.1 7.5 7.6 7.7 8.0 7.9 8.0 7.8 7.9 7.8 7.9 7.9 8.0 8.0 8.1 8.2 8.1 8.1 8.1 7.6 7.6 7.7 7.9 7.7 7.7 7.8 7.7 7.3 6.7
3.9 4.6 5.8 6.2 6.5 6.6 6.0 5.8 5.7 5.8 5.9 6.1 6.4 6.3 6.5 6.6 6.7 6.9 7.1 7.4 7.4 7.6 7.8 7.9 7.9 7.9 7.9 7.9 7.9 8.0 8.0 8.0 8.0 8.1 8.1 8.1 8.1 7.7 7.6 7.7 7.6 7.7 7.7 7.8 7.9 7.1 7.0
4.2 6.0 6.2 5.9 6.6 6.6 6.3 5.9 5.6 5.7 6.0 6.3 6.4 6.4 6.4 6.6 6.6 6.9 7.1 7.4 7.5 7.5 7.8 8.0 7.9 7.9 7.9 7.9 7.9 7.8 7.8 7.9 7.9 8.0 7.9 8.0 7.9 7.6 7.3 7.3 7.5 7.6 7.7 7.8 7.7 7.5 7.2
5.1 5.3 6.3 6.3 6.6 6.6 6.7 6.3 5.8 5.9 6.2 6.2 6.4 6.4 6.4 6.5 6.6 7.1 7.1 7.4 7.4 7.5 7.6 7.8 7.9 7.9 8.0 8.1 8.0 7.9 7.8 7.9 7.9 7.9 7.8 7.8 7.9 8.0 7.8 8.1 8.0 7.7 7.9 7.8 7.5 7.5 7.4
5.4 5.5 5.6 6.1 6.7 6.7 6.7 6.6 6.4 6.2 6.1 6.0 6.0 6.4 6.2 6.1 6.4 6.9 7.1 7.4 7.4 7.4 7.5 7.7 7.8 7.9 8.1 8.0 8.0 8.0 7.9 7.8 7.7 7.6 7.6 7.5 7.6 7.7 7.8 7.9 7.8 7.8 7.9 7.8 7.8 7.6 7.3
5.4 5.9 6.0 6.6 6.4 6.9 6.9 6.8 6.8 6.2 6.1 5.8 5.9 6.2 6.1 6.5 6.7 6.8 6.9 7.1 7.4 7.4 7.5 7.6 7.6 7.8 7.9 7.8 7.9 7.9 7.7 7.6 7.6 7.5 7.5 7.4 7.5 7.6 7.6 7.7 7.7 7.8 7.8 7.7 7.7 7.6 7.5
5.7 5.5 6.0 5.9 6.6 6.9 6.9 7.0 6.7 6.3 6.1 5.7 5.9 6.2 6.2 6.4 6.6 6.7 6.9 7.2 7.3 7.3 7.3 7.3 7.4 7.5 7.6 7.6 7.6 7.6 7.6 7.4 7.3 7.4 7.5 7.4 7.3 7.5 7.4 7.7 7.5 7.2 8.2 8.2 8.1 8.0 8.0
5.4 6.0 5.8 6.2 6.8 6.9 7.0 6.9 6.8 6.4 6.2 6.1 6.1 6.1 6.1 6.3 6.6 6.8 6.9 7.4 7.3 7.3 7.3 7.2 7.3 7.4 7.5 7.3 7.2 7.0 7.1 7.0 7.1 7.2 7.4 7.4 7.3 7.3 7.4 7.2 6.1 7.9 8.2 8.2 8.1 8.2 8.3
5.8 5.9 6.1 6.5 6.8 7.0 7.1 7.0 6.8 6.7 6.4 6.3 6.3 6.3 6.2 6.2 6.7 6.8 6.9 7.3 7.2 7.2 7.4 7.2 7.3 7.4 7.2 7.1 7.0 6.9 6.7 6.7 6.8 6.8 6.9 6.9 7.0 7.1 7.1 6.8 7.3 7.5 7.8 7.9 7.8 7.8 8.0
6.0 6.3 6.5 6.7 7.0 7.2 7.1 7.1 7.1 6.8 6.4 6.3 6.4 6.2 6.2 6.4 6.7 7.1 7.0 7.2 7.2 7.2 7.3 7.3 7.3 7.2 7.1 7.0 7.0 6.9 6.8 6.7 6.7 6.8 6.9 6.9 6.8 6.7 6.7 6.5 5.7 7.4 7.7 7.7 7.6 7.2 7.6
6.4 6.6 6.8 7.0 7.3 7.3 7.3 7.2 7.1 6.8 6.5 6.4 6.2 6.1 6.2 6.3 6.8 6.9 7.0 7.2 7.1 7.2 7.3 7.3 7.2 7.2 7.1 7.0 6.9 6.8 6.8 6.7 6.5 6.7 6.8 6.9 6.9 6.8 6.7 6.4 6.7 7.4 7.5 7.4 7.1 7.2 6.9
6.5 6.8 7.0 7.3 7.4 7.5 7.3 7.1 7.0 6.7 6.6 6.5 6.4 6.3 6.3 6.5 6.8 7.0 7.1 7.1 7.2 7.3 7.4 7.3 7.2 7.1 7.0 6.8 6.8 6.7 6.6 6.5 6.4 6.6 6.8 6.8 6.9 6.9 6.9 6.4 6.5 7.1 6.9 6.9 6.8 6.9 6.8
6.7 6.9 7.1 7.1 7.4 7.5 7.2 7.1 6.9 6.7 6.6 6.5 6.5 6.6 6.6 6.8 7.1 7.2 7.1 7.1 7.3 7.4 7.5 7.5 7.3 7.1 6.9 6.7 6.7 6.6 6.4 6.4 6.5 6.4 6.9 6.5 6.9 6.8 6.9 7.1 7.1 6.8 6.6 6.5 6.6 6.6 6.7
Wind_Speed
23 21 20 19 19 17 15 16 15 17 18 19 17 19 18 17 16 13 13 12 9 9 8 7 8 9 4 2 9 2 9 16 11 7 9 6 5 5 5 5 6 4 2 2 4 6 9
23 23 21 20 21 18 17 16 15 16 17 18 17 19 15 15 14 13 11 9 7 5 5 5 5 5 1 4 4 8 12 10 7 7 6 7 6 6 3 2 4 4 4 5 5 5 3
24 24 23 22 22 20 18 16 16 15 16 18 17 17 13 13 12 12 10 8 4 2 2 4 3 1 2 12 1 10 6 6 8 8 6 5 5 2 4 2 3 4 7 6 7 3 4
26 25 24 22 22 22 18 17 16 15 16 17 17 16 12 11 11 10 7 3 1 0 1 3 2 1 8 5 2 6 5 4 5 5 3 3 7 1 2 2 5 4 4 4 2 1 4
27 26 25 23 22 22 19 18 16 15 15 15 16 14 11 9 10 6 1 3 3 2 2 2 3 1 9 9 2 3 6 2 7 4 5 6 7 4 2 4 3 7 3 3 4 9 2
29 27 26 25 23 22 19 18 15 16 14 14 15 12 9 8 8 5 6 5 5 4 2 3 1 2 6 2 4 4 3 1 4 7 6 2 3 3 3 3 4 4 4 2 5 4 11
26 28 28 26 24 22 20 17 15 16 14 12 14 11 7 8 7 10 10 3 3 1 4 6 3 4 5 7 3 3 2 2 3 7 4 1 4 4 3 3 3 5 3 6 3 3 7
18 29 29 27 25 23 21 18 16 15 14 14 13 10 4 8 13 13 4 3 5 2 2 11 6 7 6 3 2 3 2 3 4 3 2 6 5 2 5 5 6 5 6 4 5 4 6
19 25 30 29 26 24 21 19 16 15 14 12 10 7 7 12 17 7 5 9 1 5 2 3 6 4 3 5 2 1 2 2 4 3 2 6 2 3 5 4 7 4 7 4 5 7 8
20 19 31 30 27 24 22 19 16 15 13 12 9 9 14 20 7 4 5 5 14 5 4 4 3 2 2 3 3 1 3 4 4 4 3 6 2 4 4 3 1 4 4 11 11 2 3
23 18 29 31 28 25 22 20 17 15 13 12 10 13 21 14 2 4 3 2 6 2 3 4 2 1 3 4 3 3 3 5 6 4 2 0 3 3 5 2 1 4 6 7 3 4 3
26 21 23 32 28 26 23 21 18 16 13 11 13 16 21 6 2 7 9 2 3 6 3 2 2 2 4 6 4 4 4 5 4 5 5 3 2 2 3 2 4 10 6 6 3 2 0
27 25 16 31 29 26 23 21 18 16 13 12 15 18 17 9 4 8 1 2 5 4 2 2 3 3 4 2 4 4 4 4 3 4 3 4 2 1 1 5 3 5 4 2 1 1 3
29 24 19 29 28 26 24 21 18 15 14 13 15 17 11 9 4 10 2 5 3 3 5 1 3 3 4 2 3 4 3 3 5 4 3 4 0 2 4 2 4 2 4 4 5 4 2
27 25 21 29 29 26 24 21 19 16 14 15 18 4 5 4 17 3 3 4 6 6 3 6 3 5 1 1 4 3 3 2 1 1 4 3 1 2 3 1 1 3 2 2 6 2 1
27 26 21 31 31 28 24 22 19 18 19 25 5 4 4 1 13 3 5 5 3 4 1 2 4 2 3 2 3 3 1 1 2 1 1 5 3 1 1 2 6 1 6 3 2 4 3
26 26 23 34 30 28 25 21 21 22 23 28 3 3 2 3 3 5 4 5 5 5 5 5 5 3 3 4 3 2 5 1 2 1 2 3 3 2 1 0 4 3 2 5 4 1 3
27 22 20 31 30 28 24 23 21 22 23 11 4 3 1 3 4 1 4 5 3 3 3 4 4 3 5 3 4 4 6 1 1 1 5 1 4 3 1 0 1 1 3 4 3 4 1
24 17 21 29 29 27 27 24 21 27 30 5 4 2 1 4 4 0 2 2 2 2 1 2 2 3 2 4 4 2 3 2 1 3 5 5 1 3 3 2 1 2 2 4 5 2 5
18 20 20 28 27 26 26 26 25 31 36 3 4 3 3 3 1 8 5 3 1 2 2 2 4 3 4 2 3 4 3 2 2 3 7 5 3 4 7 3 1 4 4 4 3 3 4
16 25 31 27 25 25 25 27 26 30 33 1 1 3 3 3 1 5 4 6 5 2 1 2 3 2 5 4 2 3 2 2 3 1 3 2 4 2 1 1 1 2 4 8 7 4 6
22 18 23 23 23 25 25 25 23 24 20 1 4 5 3 2 6 6 2 6 6 2 1 2 5 3 2 5 6 8 6 4 4 2 2 2 4 2 4 1 3 3 5 7 6 3 10
15 22 21 22 23 23 22 21 23 27 18 3 1 2 5 3 3 6 6 6 8 5 1 3 5 4 3 1 3 4 6 8 5 5 3 2 6 3 3 2 2 5 9 10 5 5 7
24 23 20 21 21 21 20 21 22 30 17 2 3 4 4 2 2 6 8 4 6 6 5 3 3 4 1 12 9 9 12 13 13 10 3 5 4 2 2 1 1 4 2 2 9 6 12
21 21 21 20 19 18 19 20 24 28 25 1 2 4 4 3 3 4 6 5 6 4 4 3 4 1 10 3 4 4 4 5 5 7 7 3 4 3 3 3 5 4 3 5 6 5 10
20 20 18 17 16 16 17 20 20 22 23 2 1 3 4 7 6 7 6 5 5 4 3 3 4 4 5 3 3 4 3 4 1 1 1 4 5 3 3 2 4 4 2 3 3 4 2
18 17 15 15 15 14 15 17 21 24 22 3 2 2 4 4 1 6 5 6 5 4 4 4 5 1 3 2 3 3 3 1 3 4 2 2 3 3 2 3 7 6 1 2 3 4 1
17 14 13 13 13 12 12 16 21 24 21 4 2 1 4 3 1 1 5 6 3 2 5 5 4 2 3 3 3 3 3 4 2 3 5 5 5 3 3 1 6 5 2 5 4 2 2
14 12 13 12 12 11 12 14 19 23 22 5 3 2 1 4 3 0 3 3 2 6 6 0 3 4 4 4 1 3 2 1 2 3 1 3 4 3 7 4 4 5 4 2 2 3 3
Wind_Direction
233 232 232 234 237 238 242 255 264 271 282 288 295 294 299 298 292 288 281 278 276 281 290 306 313 320 340 265 251 310 84 136 143 153 163 154 160 170 181 186 156 178 229 69 34 109 100
231 228 230 232 234 230 244 251 260 268 279 286 292 292 297 295 290 283 274 270 270 279 285 297 299 315 323 273 215 129 121 136 172 161 166 155 203 203 147 196 193 133 116 107 71 96 87
227 226 226 230 231 232 237 246 255 264 273 283 289 291 292 288 286 277 267 265 266 289 287 277 267 287 270 242 352 147 155 189 175 178 167 214 159 211 134 155 171 118 82 66 30 41 74
225 223 226 228 231 232 229 241 250 260 271 283 289 288 290 287 285 273 262 267 84 297 273 247 266 160 250 238 256 244 171 222 176 198 202 194 152 149 319 122 43 79 62 103 22 66 31
222 223 223 223 225 229 229 239 245 256 266 280 285 283 283 284 277 256 200 98 105 144 203 159 115 146 268 314 216 261 184 186 150 154 179 87 121 149 93 123 73 24 122 123 96 17 100
230 220 220 218 220 226 228 235 239 252 263 275 277 275 270 270 251 178 134 118 152 163 189 162 232 273 261 284 297 320 210 72 107 124 116 135 74 106 83 136 159 152 137 133 116 19 56
252 216 219 216 216 222 228 231 237 246 264 270 271 268 267 249 193 150 118 119 115 193 221 192 194 272 295 291 282 333 9 108 47 47 58 350 119 117 103 55 127 120 106 105 65 149 77
259 225 216 215 214 217 223 230 231 242 258 258 262 260 238 201 158 155 143 228 229 231 304 219 257 281 253 261 355 330 32 69 59 85 312 46 75 337 74 67 89 95 126 99 89 112 93
252 243 215 214 214 212 217 223 227 237 248 251 251 229 194 164 140 151 223 233 19 359 122 244 193 214 229 152 158 267 56 106 80 57 358 116 124 81 77 79 121 68 103 165 132 105 96
235 244 217 213 211 210 212 216 222 227 236 237 231 191 173 146 147 171 230 255 236 199 79 289 241 253 129 124 61 320 15 114 47 136 132 78 31 115 103 108 222 87 108 127 122 84 138
227 250 226 210 206 207 204 208 217 220 225 224 208 187 170 167 104 209 241 353 138 73 92 254 224 170 42 127 156 12 338 41 141 150 169 223 112 99 75 307 136 118 133 118 97 102 152
227 229 232 209 204 201 202 203 212 218 217 217 198 180 172 233 264 247 320 78 59 49 255 208 197 119 67 16 15 307 60 43 136 85 41 92 51 55 122 52 60 143 94 54 56 70 257
229 223 241 211 200 198 198 198 204 212 210 213 193 178 175 167 208 358 145 77 45 127 309 204 151 107 88 33 35 32 33 37 119 101 34 25 3 296 113 101 90 76 98 91 180 202 229
226 215 228 217 197 194 193 193 198 199 199 205 183 174 232 240 249 11 35 58 150 225 220 27 121 95 114 174 30 17 85 77 31 76 107 144 287 18 350 80 148 109 165 164 197 197 202
226 212 223 216 196 189 190 186 189 186 184 180 145 164 259 252 232 143 89 77 204 210 201 159 80 95 70 79 114 74 56 103 44 12 123 138 141 351 38 87 151 159 168 113 106 24 214
226 212 223 216 196 183 184 183 180 175 176 166 142 177 241 221 150 119 80 208 222 208 231 170 138 136 145 150 86 80 155 249 131 47 200 188 113 54 100 108 56 127 135 120 45 155 249
222 215 222 210 190 180 178 178 174 170 178 180 120 175 227 97 111 63 156 214 233 239 203 178 154 122 134 139 120 140 178 278 193 102 115 129 105 252 180 8 165 142 127 65 102 66 175
216 211 227 197 184 173 176 171 181 165 171 172 145 182 264 123 72 51 153 195 196 277 164 215 117 107 146 146 137 160 180 196 131 191 155 158 124 132 156 301 302 112 140 139 126 188 71
208 198 236 191 178 174 169 172 176 165 170 147 153 166 357 108 134 260 263 190 176 303 306 131 100 111 94 137 114 143 143 105 157 141 161 187 52 89 22 352 356 212 138 109 105 101 189
193 206 236 190 173 172 169 169 175 177 191 115 137 119 4 54 51 137 146 161 142 221 246 104 119 86 104 99 36 156 133 48 87 98 57 86 110 161 188 189 160 174 174 168 141 141 171
181 211 219 176 166 167 173 167 180 186 193 83 33 181 169 181 287 132 130 163 149 270 207 51 81 157 148 120 98 128 129 123 42 124 59 104 148 119 99 19 250 221 181 187 204 179 191
185 204 172 155 158 175 176 171 179 181 160 271 136 129 37 87 130 117 158 192 149 207 208 120 124 134 140 150 181 189 146 189 185 66 84 15 160 149 183 347 13 277 238 206 229 229 255
197 180 150 154 172 175 176 170 174 162 157 170 195 60 109 315 100 126 195 182 178 145 37 54 145 119 97 104 88 68 78 78 103 137 130 106 140 134 239 2 12 318 224 199 191 206 200
180 149 149 162 174 174 169 169 166 169 180 153 174 111 94 197 140 180 174 170 155 185 154 64 80 105 173 129 113 70 61 70 64 47 55 128 98 64 163 27 250 244 164 180 219 234 217
142 146 158 165 172 166 163 165 171 178 188 182 152 119 121 139 178 141 153 125 98 67 72 86 8 350 146 66 73 59 357 24 23 37 27 50 120 95 157 207 304 287 197 182 183 281 211
141 151 156 159 153 152 162 169 173 179 179 133 136 120 112 125 235 159 144 176 143 124 49 70 33 84 66 74 77 131 189 207 227 76 43 57 65 107 133 179 231 247 259 196 165 284 282
136 135 143 142 138 144 154 163 168 172 176 129 163 124 101 123 223 140 163 163 134 101 103 120 159 187 52 74 86 146 205 210 190 172 197 42 13 166 152 227 283 253 290 167 107 257 221
124 127 127 124 123 131 142 160 164 166 169 137 90 52 113 107 297 199 160 134 117 127 137 173 88 329 53 79 134 183 167 206 150 162 181 179 157 181 110 185 272 186 131 168 222 259 241
120 122 117 111 109 120 131 147 158 161 173 159 99 25 34 83 145 151 93 65 255 161 127 299 144 157 165 91 124 116 142 107 127 233 338 244 197 176 195 219 235 218 235 227 174 250 245